Regional Weather Roundup
Issued by NWS State College, PA

Home | Current Version | Previous Version | Graphics & Text | Print | Product List | Glossary Off
Versions: 1 2 3 4 5 6 7 8 9 10 11 12 13 14 15 16 17 18 19 20 21 22 23 24 25 26 27 28 29 30 31 32 33 34 35 36 37 38 39 40 41 42 43 44 45 46 47 48 49 50

516
ASUS41 KCTP 250503
RWRCTP

REGIONAL WEATHER ROUNDUP
NATIONAL WEATHER SERVICE STATE COLLEGE PA
1200 AM EST SAT FEB 25 2017

Note: "fair" indicates few or no clouds below 12,000 feet with no
significant weather and/or obstructions to visibility.

* = STATION THAT DOES NOT REPORT PRECIPITATION /E.G. RAIN...SNOW...ETC/
    THUNDER OR FOG.

PAZ002>004-007>009-013>016-020>023-029>032-250600-
WESTERN PENNSYLVANIA

CITY           SKY/WX    TMP DP  RH WIND       PRES   REMARKS
ERIE           CLOUDY    49  41  74 E3        29.54R
MEADVILLE      CLOUDY    63  46  54 VRB5      29.52F
FRANKLIN*      CLOUDY    61  46  59 S14G20    29.58F
NEW CASTLE     FAIR      63  48  58 SE8       29.55F
BEAVER COUNTY  NOT AVBL
BUTLER*        MOCLDY    64  46  52 S9        29.60S
PITTSBURGH INT CLOUDY    65  49  56 S9        29.58F
PITTSBURGH     PTCLDY    66  46  48 S14       29.60S
INDIANA*       CLEAR     63  50  63 S10G17    29.66S
LATROBE        PTCLDY    66  48  52 S8        29.63F
WASHINGTON CO* MOCLDY    64  48  55 S7        29.62S
$$

PAZ004>006-010>012-017>019-024>028-033>037-041-042-045-046-049>053-250600-
CENTRAL PENNSYLVANIA

CITY           SKY/WX    TMP DP  RH WIND       PRES   REMARKS
BRADFORD       CLOUDY    59  49  69 SE8G18    29.64F
DUBOIS         CLEAR     62  47  57 SE9G20    29.63F
CLEARFIELD       N/A    N/A N/A N/A MISG      29.67F
JOHNSTOWN      CLOUDY    59  48  67 S16       29.68F
ALTOONA        CLOUDY    63  50  62 S12       29.70F
STATE COLLEGE  CLEAR     63  50  63 S10G17    29.70F
WILLIAMSPORT   CLOUDY    64  53  67 VRB7      29.72S
SELINSGROVE    CLOUDY    61  54  77 S7        29.75S
FT INDIANTOWN  CLOUDY    62  62 100 CALM      29.77F
CAPITAL CITY   CLOUDY    63  56  78 SE5       29.76S
HARRISBURG     CLOUDY    60  57  89 S8        29.75F
YORK           CLOUDY    62  59  90 S6        29.76F
$$

PAZ038>040-043-044-047-048-054-055-060>062-067>071-250600-
EASTERN PENNSYLVANIA

CITY           SKY/WX    TMP DP  RH WIND       PRES   REMARKS
SCRANTON       CLOUDY    62  55  77 S12G25    29.75F
MOUNT POCONO   CLOUDY    55  55 100 S13G20    29.82S
ALLENTOWN      CLOUDY    64  56  75 S12       29.81F
QUAKERTOWN*    CLOUDY    61  59  94 S6        29.83S
READING        CLOUDY    64  59  83 S9        29.79S
LANCASTER      CLOUDY    63  60  90 S15G22    29.78F
COATESVILLE    CLOUDY    59  57  94 S6        29.83S
POTTSTOWN      CLOUDY    61  57  87 S6        29.83F
BLUE BELL      CLOUDY    59  55  88 CALM      29.82F
DOYLESTOWN     CLOUDY    61  58  90 VRB6      29.82F
WILLOW GROVE   NOT AVBL
NORTH PHILA    MOCLDY    62  57  83 VRB5      29.84F
PHILADELPHIA   MOCLDY    58  55  90 S7        29.83F
$$




USA.gov is the U.S. government's official web portal to all federal, state and local government web resources and services.